Wind_Speed
31 30 30 30 30 31 32 33 35 35 35 34 35 36 37 38 39 39 40 41 42 42 43 44 45 46 46 47 47 48 49 50 50 52 53 54 55 55 56 56 57 57 57 58
30 30 31 30 30 31 32 33 35 35 34 34 35 36 36 37 37 38 39 40 41 42 43 44 45 46 46 46 46 47 48 49 49 50 51 53 54 55 55 56 56 56 56 56
29 29 30 30 30 31 32 33 34 34 34 34 35 36 36 36 37 38 38 39 41 41 42 42 43 44 44 45 44 45 46 47 48 49 49 50 52 53 54 55 55 55 55 55
29 29 29 29 30 30 31 32 33 34 34 35 35 36 37 38 38 39 39 40 40 41 42 42 42 43 43 43 42 43 43 44 46 47 48 49 51 52 53 54 54 53 53 54
30 30 30 28 29 29 30 30 31 33 35 36 37 37 37 39 39 39 39 39 40 41 41 40 40 40 40 41 41 41 41 43 44 45 46 47 48 50 51 52 52 52 52 52
29 30 31 30 31 31 33 32 32 33 34 36 37 37 36 38 38 38 38 39 39 39 39 39 39 39 39 40 40 40 41 42 42 44 45 46 47 48 49 50 51 51 50 50
28 30 31 31 32 33 35 35 35 35 36 36 36 36 37 37 38 39 39 39 39 39 39 39 40 40 40 40 41 41 41 42 42 42 43 44 45 46 47 48 49 49 48 48
28 30 30 30 31 32 34 35 36 37 37 37 37 37 37 38 39 40 40 40 40 39 39 40 40 40 40 40 41 42 42 42 42 43 43 43 43 44 45 46 46 46 46 46
29 29 29 30 31 32 34 35 36 37 37 37 37 37 37 38 38 39 39 39 39 39 39 39 39 39 39 39 40 40 41 41 42 42 42 42 43 43 43 44 45 45 45 45
30 28 29 30 31 32 33 34 35 36 36 36 35 35 35 35 35 35 35 35 35 36 36 36 37 38 39 39 40 40 40 40 41 41 41 41 42 42 43 43 44 44 44 44
30 30 30 31 32 32 33 34 35 35 35 34 34 33 33 33 33 33 33 34 34 34 35 35 36 37 38 39 40 40 40 40 40 40 40 40 40 40 40 40 40 41 42 43
29 30 31 32 32 33 33 33 33 33 33 33 33 33 33 33 33 32 32 33 34 34 34 34 35 36 37 38 39 40 40 40 40 40 39 39 39 38 38 38 39 40 41 42
30 30 31 32 32 33 34 34 34 34 33 33 33 33 33 33 33 33 33 34 34 34 34 34 34 34 35 36 37 37 38 38 38 37 37 37 37 37 37 37 38 38 39 39
30 30 31 31 32 32 33 33 34 34 34 33 33 33 33 33 34 34 34 35 35 35 34 34 34 35 35 36 36 36 36 36 35 35 35 35 35 36 36 35 35 36 35 36
30 31 32 32 32 33 33 33 34 33 33 34 34 33 34 34 34 34 35 35 35 34 34 34 34 34 34 34 34 34 34 33 33 34 33 33 34 34 34 33 33 32 33 33
30 31 32 33 33 33 34 35 35 34 34 34 34 34 35 35 35 35 35 35 35 35 34 33 33 33 32 32 32 32 31 31 30 30 30 31 31 31 32 31 30 30 31 32
31 32 33 33 33 34 34 35 35 35 34 35 35 35 35 36 35 35 35 35 35 35 34 33 32 31 31 31 30 29 29 28 27 26 27 28 28 29 29 29 29 29 30 31
32 33 33 34 34 34 33 34 34 34 34 35 35 35 35 35 35 36 36 35 35 35 34 33 32 31 30 29 28 27 26 26 26 26 26 26 27 28 28 28 29 29 29 29
32 32 33 33 33 33 33 33 34 34 34 34 34 34 34 34 34 34 34 34 34 33 33 33 32 31 29 28 27 26 25 25 25 25 25 25 25 26 26 26 27 27 28 28
32 32 32 32 32 32 33 33 34 34 34 34 34 34 34 34 34 34 34 34 33 32 32 31 30 29 28 27 26 25 25 24 24 24 23 23 24 24 24 25 26 26 26 27
31 31 32 32 32 32 33 34 34 34 33 34 34 34 34 34 33 33 33 32 32 31 30 29 29 28 27 26 26 25 24 24 24 23 23 23 22 23 24 24 25 25 26 26
31 32 32 32 32 32 32 32 32 33 33 34 34 34 33 33 32 32 32 31 30 29 28 28 27 26 26 26 25 24 24 24 24 23 23 22 22 22 23 23 24 24 25 25
32 32 32 32 32 32 32 32 32 33 33 33 33 33 32 32 31 31 30 29 28 27 26 26 25 25 24 24 24 24 24 23 23 22 22 21 21 21 22 22 22 23 23 24
31 31 31 31 31 31 31 32 32 33 33 33 32 31 30 30 29 28 27 26 25 25 24 24 23 23 22 22 22 22 22 21 22 22 22 21 21 21 21 21 21 21 21 21
31 31 31 30 30 30 30 31 31 31 31 30 30 29 28 27 26 25 23 23 22 22 22 22 22 22 21 20 20 20 20 20 20 20 20 21 21 21 21 21 20 20 20 20
30 30 30 30 29 29 30 30 30 29 29 28 27 27 26 25 23 22 21 20 20 19 19 19 19 19 19 19 19 19 19 19 19 19 19 19 19 19 19 19 19 18 18 18
29 29 28 28 28 28 28 28 28 27 27 26 25 25 24 23 22 20 19 18 18 18 18 17 17 17 17 17 17 17 18 18 18 18 18 18 17 17 17 17 17 17 17 17
Wind_Direction
281 280 279 278 277 276 277 279 281 281 279 277 276 276 276 276 276 276 275 274 273 273 273 272 271 271 270 269 267 265 264 262 261 260 260 259 259 259 259 259 259 260 260 260
279 278 277 275 275 276 278 279 280 279 278 278 277 277 277 277 277 277 276 276 275 275 275 275 274 272 271 269 267 266 265 264 263 261 260 260 260 260 259 259 260 260 260 260
281 279 277 276 277 278 279 279 280 279 279 279 278 277 276 277 277 277 276 276 275 276 277 276 275 274 273 271 268 267 266 265 264 263 262 261 260 260 260 260 261 261 260 259
283 282 280 280 280 280 280 281 281 280 280 280 280 279 278 278 279 278 277 277 277 278 278 278 277 276 274 272 269 268 267 266 265 265 263 262 261 261 261 261 261 261 261 260
285 284 283 282 283 284 283 282 282 283 282 282 281 280 279 280 281 281 280 279 280 280 280 279 278 277 275 272 270 268 267 266 265 265 265 263 262 262 261 261 261 261 261 260
287 287 287 287 286 285 284 284 283 284 284 284 283 281 280 280 281 283 283 282 281 281 279 278 278 277 276 274 271 269 268 267 266 266 266 265 264 262 261 261 262 261 261 259
290 290 291 291 290 289 287 287 286 286 285 285 285 284 282 280 281 283 284 283 283 281 279 278 278 277 276 274 272 270 269 268 268 267 267 267 265 264 263 262 262 261 259 258
292 293 295 294 291 290 291 290 289 288 287 286 285 284 284 283 283 283 284 284 283 282 280 279 279 278 277 275 273 271 270 269 269 268 268 267 267 266 265 263 262 260 257 256
294 294 294 294 294 293 293 291 290 289 288 287 286 285 285 286 286 286 285 285 284 283 282 280 279 278 277 275 274 273 273 272 271 270 269 269 268 267 266 264 262 258 256 256
294 296 295 295 296 295 295 293 292 291 289 288 288 289 289 289 289 288 286 285 286 286 285 283 280 279 278 277 276 275 274 274 272 271 270 269 269 267 265 263 260 257 256 256
294 294 295 296 295 295 295 295 294 292 291 290 290 291 292 291 291 290 289 287 288 288 287 285 283 281 279 279 277 276 275 275 274 272 271 270 268 266 264 261 258 256 255 255
299 299 298 297 296 296 297 297 295 294 292 291 291 291 292 291 290 289 290 290 290 290 289 288 285 282 281 280 279 278 278 276 275 273 271 270 267 264 262 260 258 257 256 255
300 300 300 299 299 299 299 298 297 296 295 293 291 291 292 291 290 290 290 291 291 290 290 289 288 286 284 284 283 281 279 277 275 273 271 270 267 264 261 260 260 259 258 257
298 299 299 299 300 301 300 299 298 296 294 293 292 291 292 292 292 291 291 293 294 293 292 291 290 289 288 287 286 284 281 279 275 274 272 270 267 264 261 260 259 259 259 258
298 298 299 300 301 301 301 299 298 296 293 291 290 290 291 292 291 291 292 294 295 295 294 293 292 291 290 290 288 286 283 280 277 274 273 271 267 264 261 259 258 258 258 259
300 300 301 302 301 301 301 299 297 296 294 293 291 290 290 290 289 290 292 293 294 293 293 292 292 293 291 290 289 287 285 282 278 275 273 271 267 264 261 259 258 258 257 258
301 302 302 302 301 301 301 299 297 296 294 294 293 292 291 290 289 289 290 291 292 292 291 291 291 292 291 290 289 288 285 281 277 275 274 271 268 264 261 260 258 258 259 260
303 303 303 303 303 302 301 300 299 297 295 294 294 294 294 293 291 290 289 290 290 290 290 289 289 290 290 289 289 287 284 281 279 276 274 272 269 265 260 258 258 258 260 262
305 305 304 304 304 304 303 302 300 299 298 297 297 296 295 294 293 292 290 290 290 289 288 288 288 288 288 288 287 285 284 281 279 276 275 272 268 265 262 259 258 259 261 263
309 308 307 307 306 305 305 304 303 302 301 299 298 297 295 295 294 293 291 290 289 289 288 287 286 285 285 285 284 282 281 279 278 277 277 273 266 263 262 261 260 260 262 264
311 310 308 308 307 306 306 306 306 305 304 302 300 299 297 296 295 294 292 291 290 289 288 286 284 283 281 282 282 280 278 277 276 275 276 273 268 266 265 264 263 262 263 265
312 312 311 310 309 309 309 309 309 307 306 304 303 302 300 297 296 294 293 291 289 288 287 284 282 281 279 278 277 276 276 275 274 274 274 272 270 269 268 267 266 265 265 267
314 313 312 311 311 311 311 312 312 310 309 308 307 304 302 300 297 296 294 292 289 287 286 283 281 280 279 277 275 274 274 273 271 270 270 271 271 270 270 269 268 267 268 270
316 315 315 315 314 314 314 314 314 314 313 312 310 308 306 304 302 299 296 293 289 286 284 282 281 280 279 277 275 273 271 271 270 269 269 270 269 269 269 269 270 269 269 270
317 317 317 316 317 317 317 317 317 317 317 317 315 313 310 308 306 304 301 297 293 289 285 283 281 280 278 276 274 272 271 270 269 269 268 270 271 270 269 269 269 269 268 269
318 318 318 318 318 319 319 320 320 320 320 320 320 319 317 314 311 308 305 302 298 294 290 287 283 280 277 275 274 273 272 271 270 268 268 270 271 270 269 269 269 270 270 270
319 319 319 320 320 320 322 323 324 323 323 324 324 324 323 320 317 313 309 305 302 299 295 291 287 284 280 277 275 274 272 270 269 268 268 269 269 269 268 269 269 270 271 272
Height
5544 5542 5540 5539 5537 5535 5533 5531 5529 5529 5528 5526 5524 5522 5521 5519 5517 5516 5514 5513 5512 5511 5510 5509 5508 5507 5506 5505 5505 5504 5504 5504 5505 5506 5507 5508 5509 5511 5512 5514 5515 5516 5518 5519
5535 5533 5531 5529 5528 5526 5524 5522 5519 5518 5517 5515 5513 5511 5510 5507 5506 5504 5502 5500 5499 5498 5496 5495 5493 5492 5491 5490 5490 5489 5489 5489 5489 5490 5491 5492 5493 5494 5496 5497 5498 5499 5501 5502
5525 5523 5520 5520 5519 5516 5514 5512 5510 5507 5507 5505 5503 5501 5498 5496 5494 5492 5490 5488 5486 5484 5483 5481 5479 5477 5476 5476 5475 5475 5474 5474 5474 5475 5476 5476 5477 5478 5479 5481 5482 5483 5484 5486
5515 5514 5511 5513 5509 5507 5505 5503 5500 5498 5496 5494 5492 5490 5488 5485 5482 5480 5478 5476 5474 5472 5469 5467 5465 5464 5462 5461 5461 5460 5460 5460 5460 5460 5461 5461 5462 5462 5463 5464 5466 5467 5468 5469
5505 5503 5501 5502 5499 5496 5494 5493 5491 5488 5486 5483 5481 5479 5477 5473 5471 5468 5466 5464 5461 5459 5457 5455 5452 5450 5449 5448 5447 5447 5446 5446 5446 5446 5446 5446 5446 5447 5448 5449 5450 5451 5452 5453
5496 5493 5492 5493 5489 5486 5485 5483 5481 5478 5475 5472 5469 5467 5466 5463 5459 5457 5454 5451 5449 5446 5444 5442 5440 5438 5436 5435 5434 5434 5433 5433 5432 5432 5432 5432 5432 5432 5433 5433 5434 5435 5437 5438
5488 5484 5482 5482 5479 5476 5475 5473 5470 5466 5463 5461 5458 5456 5454 5451 5448 5445 5442 5440 5437 5434 5432 5429 5427 5425 5424 5422 5421 5420 5419 5419 5418 5418 5418 5417 5417 5417 5418 5418 5419 5420 5422 5423
5479 5476 5477 5473 5469 5467 5464 5461 5458 5455 5452 5449 5447 5444 5441 5439 5436 5433 5430 5428 5425 5422 5419 5417 5414 5412 5411 5409 5407 5406 5406 5405 5405 5404 5404 5403 5403 5403 5403 5403 5404 5405 5407 5409
5472 5471 5467 5463 5460 5456 5453 5450 5447 5444 5441 5438 5435 5433 5430 5427 5424 5421 5419 5416 5413 5410 5408 5405 5402 5400 5398 5396 5394 5393 5392 5392 5391 5390 5390 5389 5389 5389 5389 5389 5389 5391 5393 5395
5463 5462 5459 5455 5451 5447 5444 5440 5436 5433 5430 5427 5424 5421 5418 5416 5413 5410 5407 5404 5401 5399 5396 5393 5390 5388 5386 5384 5382 5381 5380 5378 5377 5377 5376 5376 5375 5375 5375 5375 5376 5377 5379 5381
5455 5453 5450 5447 5442 5438 5434 5430 5426 5423 5419 5416 5413 5410 5408 5405 5402 5399 5396 5393 5390 5388 5385 5382 5379 5376 5373 5371 5369 5368 5366 5365 5364 5363 5363 5362 5362 5361 5361 5361 5362 5364 5366 5368
5447 5444 5440 5437 5433 5429 5425 5421 5417 5413 5410 5406 5403 5400 5398 5395 5392 5389 5386 5383 5380 5377 5373 5370 5367 5364 5361 5359 5356 5355 5353 5352 5351 5350 5349 5349 5348 5348 5348 5348 5349 5350 5352 5354
5438 5435 5430 5427 5423 5419 5415 5411 5407 5403 5399 5396 5394 5390 5387 5385 5382 5379 5376 5373 5369 5366 5362 5359 5356 5352 5349 5347 5344 5342 5340 5339 5338 5337 5336 5336 5335 5336 5336 5336 5336 5337 5339 5340
5429 5425 5422 5418 5414 5410 5405 5401 5397 5393 5389 5386 5383 5380 5377 5375 5372 5368 5365 5362 5359 5355 5351 5348 5345 5341 5338 5335 5332 5330 5328 5326 5325 5324 5324 5323 5323 5324 5324 5324 5325 5325 5326 5328
5420 5416 5412 5408 5404 5400 5395 5391 5387 5383 5379 5376 5373 5370 5367 5364 5361 5358 5355 5351 5348 5344 5341 5337 5334 5330 5327 5324 5321 5319 5316 5315 5313 5313 5312 5312 5312 5312 5312 5313 5314 5315 5316 5317
5411 5407 5403 5399 5394 5390 5385 5381 5377 5373 5369 5365 5362 5359 5356 5353 5350 5347 5344 5340 5337 5334 5330 5327 5324 5320 5317 5314 5311 5309 5306 5305 5303 5302 5302 5301 5301 5301 5302 5303 5304 5305 5306 5307
5402 5398 5394 5389 5385 5380 5375 5370 5366 5362 5358 5354 5351 5347 5344 5341 5338 5336 5333 5329 5326 5322 5319 5316 5314 5311 5308 5305 5302 5299 5297 5296 5294 5293 5292 5292 5292 5292 5293 5293 5294 5295 5296 5297
5392 5387 5383 5378 5373 5369 5364 5360 5355 5351 5347 5343 5339 5336 5333 5329 5327 5324 5321 5318 5315 5312 5308 5306 5303 5301 5298 5295 5293 5291 5289 5287 5286 5285 5284 5284 5283 5283 5284 5285 5285 5286 5287 5287
5383 5378 5373 5368 5364 5359 5354 5350 5345 5341 5336 5332 5329 5325 5321 5318 5315 5312 5309 5306 5303 5300 5298 5295 5293 5291 5288 5286 5284 5282 5280 5279 5278 5277 5276 5275 5275 5275 5275 5276 5277 5278 5278 5279
5373 5369 5364 5360 5355 5350 5345 5340 5336 5331 5326 5322 5318 5314 5311 5307 5304 5301 5298 5295 5292 5289 5287 5284 5282 5281 5279 5277 5275 5274 5272 5271 5270 5269 5268 5267 5267 5267 5267 5268 5269 5269 5270 5270
5365 5360 5356 5351 5346 5341 5336 5331 5326 5321 5316 5312 5307 5303 5300 5296 5293 5290 5287 5284 5281 5278 5276 5274 5272 5271 5269 5268 5267 5265 5264 5263 5262 5262 5261 5260 5260 5260 5260 5260 5261 5261 5261 5261
5357 5352 5347 5342 5337 5332 5327 5321 5316 5311 5307 5302 5297 5293 5289 5285 5282 5279 5276 5273 5270 5268 5266 5264 5262 5261 5260 5259 5258 5257 5256 5255 5255 5254 5254 5253 5253 5253 5253 5253 5253 5253 5253 5252
5348 5343 5338 5333 5328 5323 5318 5313 5308 5302 5297 5292 5287 5282 5278 5274 5271 5268 5265 5262 5259 5257 5256 5254 5253 5252 5251 5250 5249 5248 5248 5247 5247 5246 5246 5246 5246 5246 5245 5245 5245 5245 5244 5244
5340 5335 5330 5325 5320 5315 5310 5305 5299 5294 5288 5283 5278 5273 5268 5264 5261 5257 5254 5252 5249 5248 5246 5245 5244 5243 5242 5241 5240 5240 5240 5239 5239 5239 5239 5239 5239 5238 5238 5238 5237 5237 5237 5236
5332 5327 5322 5317 5312 5307 5302 5297 5292 5286 5281 5275 5270 5264 5260 5256 5252 5249 5245 5243 5240 5238 5237 5236 5235 5234 5233 5233 5233 5232 5232 5232 5232 5232 5232 5232 5231 5231 5231 5231 5230 5230 5229 5229
5325 5320 5315 5309 5305 5300 5295 5289 5284 5279 5273 5268 5263 5257 5253 5248 5245 5241 5238 5235 5233 5231 5229 5228 5227 5226 5226 5226 5225 5225 5225 5225 5225 5225 5225 5225 5225 5224 5224 5224 5223 5223 5222 5222
5317 5312 5308 5303 5298 5293 5288 5282 5277 5272 5267 5262 5256 5251 5247 5242 5239 5235 5232 5230 5227 5225 5223 5221 5220 5219 5219 5219 5219 5219 5219 5219 5219 5219 5219 5219 5219 5218 5218 5218 5217 5217 5217 5216